Location: Brno
(49.2000°N, 16.6330°E)
Time: 16:09:20
(UTC+02:00)

Explorer 11/Cluster Stage 4 - Pass Details

Date: 01 August 2021
Orbit: 467 x 1256 km, 28.8° (Epoch: 27 September)

Event Time Altitude Azimuth Distance (km) Brightness Sun altitude
Rises 13:41:26 0° 245° (WSW) 4,174 10.6 57.6°
Reaches altitude 10° 13:47:10 10° 214° (SW) 3,110 10.3 57.3°
Maximum altitude 13:49:11 11° 199° (SSW) 2,973 10.3 57.1°
Drops below altitude 10° 13:51:09 10° 184° (S) 3,001 10.2 57.0°
Sets 13:56:20 0° 152° (SSE) 3,764 10.3 56.7°
